FW4030 Weather Reports


Display with metric or nautical units.
time (UTC)temp
F
wind
direction
speed
MPH
gust
MPH
rain 1hr
in
rain 24hr
in
rain mn
in
humidity
%
barometer
mb
20260901063137 59 114 4.0 5.0 0.00 0.00 0.00 96 1029.0
20260901061236 59 122 5.0 9.0 0.00 0.00 0.00 96 1029.0
20260901055237 59 119 5.0 8.0 0.00 0.00 0.00 96 1028.9
20260901054237 58 140 2.0 4.0 0.00 0.00 0.00 96 1028.8
20260901052137 58 114 3.0 5.0 0.00 0.00 0.00 95 1028.7
20260901051137 57 127 3.0 7.0 0.00 0.00 0.00 95 1028.6
20260901050137 57 117 3.0 5.0 0.00 0.00 0.00 94 1028.4
20260901044135 58 132 2.0 4.0 0.00 0.00 0.00 94 1028.3
20260901043137 58 119 1.0 2.0 0.00 0.00 0.00 94 1028.2
20260901043035 58 135 1.0 2.0 0.00 0.00 0.00 94 1028.2
20260901042034 58 135 2.0 3.0 0.00 0.00 0.00 93 1027.9
20260901041034 58 135 3.0 4.0 0.00 0.00 0.00 93 1027.9
20260901040036 58 112 1.0 2.0 0.00 0.00 0.00 93 1027.9
20260901035135 58 118 3.0 4.0 0.00 0.00 0.00 93 1027.9
20260901035035 58 113 0.0 2.0 0.00 0.00 0.00 93 1027.8
20260901034934 58 114 1.0 4.0 0.00 0.00 0.00 93 1027.8
20260901032937 58 134 2.0 3.0 0.00 0.00 0.00 92 1027.9
20260901031935 58 112 2.0 3.0 0.00 0.00 0.00 92 1027.7
20260901030836 59 112 1.0 3.0 0.00 0.00 0.00 92 1027.6
20260901030738 59 112 1.0 2.0 0.00 0.00 0.00 92 1027.6
20260901025835 59 112 1.0 2.0 0.00 0.00 0.00 92 1027.7
20260901024835 59 112 1.0 2.0 0.00 0.00 0.00 92 1027.7
20260901023835 60 112 3.0 4.0 0.00 0.00 0.00 92 1027.6
20260901022834 59 112 3.0 5.0 0.00 0.00 0.00 92 1027.5
20260901022737 60 116 2.0 4.0 0.00 0.00 0.00 92 1027.5
20260901022635 60 112 2.0 4.0 0.00 0.00 0.00 92 1027.5
20260901021635 59 112 2.0 4.0 0.00 0.00 0.00 92 1027.5
20260901020636 60 132 4.0 8.0 0.00 0.00 0.00 92 1027.4
20260901015635 60 116 4.0 7.0 0.00 0.00 0.00 92 1027.5
20260901014634 60 116 3.0 5.0 0.00 0.00 0.00 91 1027.3
20260901013636 59 112 4.0 5.0 0.00 0.00 0.00 90 1027.4
20260901011634 59 113 4.0 6.0 0.00 0.00 0.00 91 1027.3
20260901010636 59 114 3.0 6.0 0.00 0.00 0.00 91 1027.3
20260901010535 59 125 3.0 4.0 0.00 0.00 0.00 91 1027.3
20260901005633 59 116 4.0 7.0 0.00 0.00 0.00 91 1027.2
20260901005535 59 119 4.0 8.0 0.00 0.00 0.00 91 1027.2
20260901004538 59 150 3.0 9.0 0.00 0.00 0.00 90 1027.2
20260901003634 59 137 5.0 9.0 0.00 0.00 0.00 89 1027.2
20260901002634 59 114 4.0 6.0 0.00 0.00 0.00 89 1027.3
20260901002535 59 114 4.0 7.0 0.00 0.00 0.00 90 1027.3
20260901002434 59 112 3.0 6.0 0.00 0.00 0.00 90 1027.3
20260901001436 59 116 4.0 6.0 0.00 0.00 0.00 89 1027.2
20260901000437 59 112 3.0 5.0 0.00 0.00 0.00 89 1027.3
20260831235436 59 120 3.0 6.0 0.00 0.00 0.00 87 1027.3
20260831234436 59 112 4.0 6.0 0.00 0.00 0.00 88 1027.2
20260831232535 59 112 4.0 7.0 0.00 0.00 0.00 87 1027.1
20260831225551 59 114 3.0 5.0 0.00 0.00 0.00 85 1027.2
20260831221636 59 112 4.0 6.0 0.00 0.00 0.00 85 1026.9
20260831220734 59 122 3.0 6.0 0.00 0.00 0.00 85 1026.9
20260831215824 59 112 4.0 6.0 0.00 0.00 0.00 85 1026.9
20260831214822 59 122 4.0 8.0 0.00 0.00 0.00 84 1026.8
20260831213823 59 112 3.0 6.0 0.00 0.00 0.00 85 1026.8
20260831211821 59 112 3.0 5.0 0.00 0.00 0.00 84 1026.7
20260831210823 59 115 4.0 5.0 0.00 0.00 0.00 83 1026.6
20260831210722 59 117 3.0 4.0 0.00 0.00 0.00 83 1026.6
20260831205738 59 118 4.0 6.0 0.00 0.00 0.00 83 1026.5
20260831204820 59 112 4.0 7.0 0.00 0.00 0.00 82 1026.4
20260831203823 60 120 3.0 5.0 0.00 0.00 0.00 82 1026.3
20260831202823 60 123 3.0 4.0 0.00 0.00 0.00 82 1026.2
20260831201921 60 114 4.0 6.0 0.00 0.00 0.00 82 1026.1
20260831201825 60 112 3.0 5.0 0.00 0.00 0.00 82 1026.1
20260831195921 60 114 3.0 5.0 0.00 0.00 0.00 82 1025.8
20260831194923 60 112 2.0 4.0 0.00 0.00 0.00 82 1025.8
20260831192923 61 114 1.0 4.0 0.00 0.00 0.00 81 1025.8
20260831184023 63 155 5.0 8.0 0.00 0.00 0.00 76 1024.9
20260831183024 64 171 4.0 7.0 0.00 0.00 0.00 75 1024.6
20260831182022 64 168 9.0 16.0 0.00 0.00 0.00 74 1024.4
20260831181023 64 174 6.0 9.0 0.00 0.00 0.00 72 1024.3
20260831180023 65 149 6.0 8.0 0.00 0.00 0.00 72 1024.1
20260831175023 65 168 3.0 7.0 0.00 0.00 0.00 71 1023.9
20260831173121 66 134 8.0 10.0 0.00 0.00 0.00 70 1023.6
20260831172121 67 157 8.0 13.0 0.00 0.00 0.00 70 1023.4
20260831172022 67 166 6.0 13.0 0.00 0.00 0.00 70 1023.4
20260831170120 67 157 6.0 15.0 0.00 0.00 0.00 69 1023.2
20260831164122 67 153 6.0 11.0 0.00 0.00 0.00 70 1022.9
20260831163121 68 166 7.0 14.0 0.00 0.00 0.00 70 1023.0
20260831162220 68 178 6.0 12.0 0.00 0.00 0.00 70 1022.8
20260831161222 68 166 6.0 9.0 0.00 0.00 0.00 70 1022.7
20260831161124 68 173 11.0 17.0 0.00 0.00 0.00 70 1022.8
20260831160123 68 170 9.0 14.0 0.00 0.00 0.00 70 1022.7
20260831155221 68 173 11.0 14.0 0.00 0.00 0.00 73 1022.6
20260831154221 66 180 11.0 15.0 0.00 0.00 0.00 77 1022.5
20260831153223 66 164 5.0 7.0 0.00 0.00 0.00 77 1022.3
20260831152224 66 152 6.0 11.0 0.00 0.00 0.00 76 1022.1
20260831150322 67 143 9.0 14.0 0.00 0.00 0.00 76 1021.9
20260831144324 68 124 3.0 8.0 0.00 0.00 0.00 78 1021.5
20260831143322 68 123 7.0 15.0 0.00 0.00 0.00 82 1021.5
20260831142420 68 163 9.0 14.0 0.00 0.00 0.00 85 1021.5
20260831141422 67 133 3.0 8.0 0.00 0.00 0.00 88 1021.3
20260831140421 65 161 5.0 11.0 0.00 0.00 0.00 89 1021.3
20260831135421 64 131 4.0 9.0 0.00 0.00 0.00 91 1021.4
20260831135321 64 113 3.0 9.0 0.00 0.00 0.00 91 1021.3
20260831135238 63 127 4.0 9.0 0.00 0.00 0.00 91 1021.3
20260831133222 60 152 5.0 7.0 0.00 0.00 0.00 88 1021.3
20260831133122 60 112 4.0 6.0 0.00 0.00 0.00 88 1021.2
20260831131122 62 145 8.0 11.0 0.00 0.00 0.00 82 1021.3
20260831130122 64 175 5.0 9.0 0.00 0.00 0.00 80 1021.2
20260831125220 67 155 7.0 14.0 0.00 0.00 0.00 77 1020.9
20260831124232 68 124 11.0 15.0 0.00 0.00 0.00 81 1020.6
20260831123122 65 120 7.0 15.0 0.00 0.00 0.00 85 1020.6
20260831122122 64 121 8.0 13.0 0.00 0.00 0.00 86 1020.8
20260831121121 64 124 5.0 10.0 0.00 0.00 0.00 87 1020.9
20260831121022 63 124 10.0 16.0 0.00 0.00 0.00 88 1021.0
20260831120121 62 112 4.0 7.0 0.00 0.00 0.00 87 1020.9
20260831115122 62 113 5.0 9.0 0.00 0.00 0.00 84 1020.9
20260831114123 64 132 6.0 13.0 0.00 0.00 0.00 79 1021.0
20260831113122 66 120 7.0 11.0 0.00 0.00 0.00 71 1020.7
20260831113023 67 114 8.0 13.0 0.00 0.00 0.00 70 1020.6
20260831111022 69 170 8.0 14.0 0.00 0.00 0.00 66 1020.0
20260831110023 69 123 7.0 17.0 0.00 0.00 0.00 66 1020.2
20260831105022 69 115 14.0 22.0 0.00 0.00 0.00 66 1020.0
20260831104023 69 116 12.0 23.0 0.00 0.00 0.00 67 1019.9
20260831102022 69 125 11.0 17.0 0.00 0.00 0.00 69 1019.9
20260831101022 68 119 8.0 13.0 0.00 0.00 0.00 70 1019.9
20260831100021 68 117 7.0 12.0 0.00 0.00 0.00 72 1019.9
20260831095923 68 119 8.0 12.0 0.00 0.00 0.00 72 1019.8
20260831094023 67 122 8.0 13.0 0.00 0.00 0.00 73 1019.8
20260831092021 67 118 9.0 13.0 0.00 0.00 0.00 75 1019.9
20260831091022 66 129 7.0 14.0 0.00 0.00 0.00 77 1020.0
20260831090020 67 116 4.0 9.0 0.00 0.00 0.00 78 1019.8
20260831085921 66 121 6.0 11.0 0.00 0.00 0.00 79 1020.0
20260831084922 65 118 4.0 12.0 0.00 0.00 0.00 80 1020.0
20260831083922 65 126 5.0 9.0 0.00 0.00 0.00 80 1019.8
20260831082920 65 118 6.0 10.0 0.00 0.00 0.00 79 1020.0
20260831081921 66 114 10.0 14.0 0.00 0.00 0.00 79 1019.9
20260831081020 66 121 7.0 11.0 0.00 0.00 0.00 81 1019.8
20260831074021 65 122 3.0 6.0 0.00 0.00 0.00 85 1019.9
20260831073023 64 121 6.0 8.0 0.00 0.00 0.00 86 1020.1
20260831072021 64 114 8.0 15.0 0.00 0.00 0.00 86 1020.1
20260831071022 63 122 9.0 14.0 0.00 0.00 0.00 87 1020.2
20260831070020 63 136 6.0 10.0 0.00 0.00 0.00 88 1020.2
20260831065022 62 121 5.0 12.0 0.00 0.00 0.00 89 1020.2
20260831064023 62 121 9.0 16.0 0.00 0.00 0.00 91 1019.9